K4DNM Weather Reports


time (UTC)temp
F
wind
direction
speed
knots
gust
knots
rain 1hr
in
rain 24hr
in
rain mn
in
humidity
%
barometer
mb
20260506002907 73 218 2.6 8.7 0.00 0.00 0.00 54 1013.7
20260506002406 73 173 3.5 7.8 0.00 0.00 0.00 53 1013.7
20260506001905 73 176 4.3 9.6 0.00 0.00 0.00 53 1013.6
20260506001407 74 236 3.5 9.6 0.00 0.00 0.00 53 1013.7
20260506000905 74 204 3.5 7.8 0.00 0.00 0.00 53 1013.6
20260506000408 74 186 3.5 7.8 0.00 0.00 0.00 53 1013.5
20260505235906 74 194 3.5 7.8 0.00 0.00 0.00 53 1013.4
20260505235407 74 188 3.5 7.8 0.00 0.00 0.00 52 1013.4
20260505234908 75 217 3.5 7.8 0.00 0.00 0.00 52 1013.4
20260505234407 75 197 3.5 7.8 0.00 0.00 0.00 52 1013.3
20260505233907 75 146 3.5 7.8 0.00 0.00 0.00 51 1013.3
20260505233406 75 201 3.5 7.8 0.00 0.00 0.00 51 1013.3
20260505232917 76 179 3.5 7.8 0.00 0.00 0.00 51 1013.4
20260505232400 76 206 3.5 7.8 0.00 0.00 0.00 50 1013.2
20260505231901 76 167 3.5 8.7 0.00 0.00 0.00 50 1013.2
20260505231400 76 264 3.5 8.7 0.00 0.00 0.00 51 1013.3
20260505230901 76 171 4.3 7.0 0.00 0.00 0.00 50 1013.2
20260505230400 76 153 3.5 8.7 0.00 0.00 0.00 50 1013.2
20260505225901 76 224 2.6 8.7 0.00 0.00 0.00 50 1013.2
20260505225401 76 156 2.6 7.8 0.00 0.00 0.00 50 1013.2
20260505224901 76 187 3.5 7.8 0.00 0.00 0.00 50 1013.3
20260505224622 77 185 4.3 7.8 0.00 0.00 0.00 50 1013.4
20260505224505 77 185 4.3 7.8 0.00 0.00 0.00 50 1013.4
20260505224123 77 308 4.3 8.7 0.00 0.00 0.00 49 1013.3
20260505224006 77 308 4.3 8.7 0.00 0.00 0.00 49 1013.3
20260505223402 77 196 3.5 8.7 0.00 0.00 0.00 49 1013.4
20260505222859 77 178 3.5 10.4 0.00 0.00 0.00 49 1013.5
20260505222356 78 85 3.5 10.4 0.00 0.00 0.00 48 1013.5
20260505221856 78 155 4.3 7.8 0.00 0.00 0.00 48 1013.4
20260505221612 78 140 4.3 9.6 0.00 0.00 0.00 48 1013.4
20260505221459 78 140 4.3 9.6 0.00 0.00 0.00 48 1013.4
20260505220853 79 178 4.3 9.6 0.00 0.00 0.00 47 1013.4
20260505220353 79 179 3.5 8.7 0.00 0.00 0.00 48 1013.4
20260505215853 79 186 4.3 9.6 0.00 0.00 0.00 48 1013.4
20260505215352 79 163 3.5 9.6 0.00 0.00 0.00 48 1013.5
20260505214853 79 238 3.5 8.7 0.00 0.00 0.00 48 1013.5
20260505214352 79 195 3.5 8.7 0.00 0.00 0.00 47 1013.5
20260505213852 79 196 3.5 11.3 0.00 0.00 0.00 46 1013.4
20260505213352 79 167 3.5 11.3 0.00 0.00 0.00 46 1013.3
20260505212850 80 183 3.5 7.0 0.00 0.00 0.00 46 1013.3
20260505212614 79 144 3.5 7.8 0.00 0.00 0.00 45 1013.3
20260505212455 79 144 3.5 7.8 0.00 0.00 0.00 45 1013.3
20260505211851 80 194 3.5 10.4 0.00 0.00 0.00 45 1013.4
20260505211352 80 134 4.3 10.4 0.00 0.00 0.00 45 1013.5
20260505210852 80 247 4.3 9.6 0.00 0.00 0.00 44 1013.4
20260505210352 79 159 4.3 9.6 0.00 0.00 0.00 46 1013.5
20260505205852 80 187 3.5 9.6 0.00 0.00 0.00 46 1013.6
20260505205352 80 189 3.5 10.4 0.00 0.00 0.00 47 1013.6
20260505204853 80 202 4.3 10.4 0.00 0.00 0.00 46 1013.6
20260505204352 81 190 3.5 8.7 0.00 0.00 0.00 46 1013.5
20260505204115 80 191 4.3 8.7 0.00 0.00 0.00 45 1013.5
20260505203956 80 191 4.3 8.7 0.00 0.00 0.00 45 1013.5
20260505203613 80 173 3.5 10.4 0.00 0.00 0.00 46 1013.5
20260505203456 80 173 3.5 10.4 0.00 0.00 0.00 46 1013.5
20260505202852 80 179 4.3 10.4 0.00 0.00 0.00 47 1013.5
20260505202617 80 170 5.2 10.4 0.00 0.00 0.00 46 1013.5
20260505202455 80 170 5.2 10.4 0.00 0.00 0.00 46 1013.5
20260505202119 80 165 3.5 7.8 0.00 0.00 0.00 46 1013.9
20260505202047 80 173 4.3 8.7 0.00 0.00 0.00 46 1013.6
20260505201948 80 188 4.3 8.7 0.00 0.00 0.00 46 1013.7
20260505201851 80 172 4.3 9.6 0.00 0.00 0.00 46 1013.7
20260505201751 80 171 3.5 9.6 0.00 0.00 0.00 46 1013.8
20260505195955 80 165 3.5 7.8 0.00 0.00 0.00 46 1013.9
20260505195350 80 213 3.5 8.7 0.00 0.00 0.00 44 1013.9
20260505194850 80 168 3.5 8.7 0.00 0.00 0.00 44 1014.0
20260505194350 80 174 3.5 8.7 0.00 0.00 0.00 45 1014.0
20260505193852 80 0 3.5 9.6 0.00 0.00 0.00 48 1014.2
20260505193347 80 130 3.5 9.6 0.00 0.00 0.00 45 1014.3
20260505192847 81 164 2.6 7.8 0.00 0.00 0.00 44 1014.3
20260505192347 81 146 2.6 7.8 0.00 0.00 0.00 45 1014.4
20260505191847 80 238 2.6 7.0 0.00 0.00 0.00 45 1014.5
20260505191347 80 140 2.6 7.8 0.00 0.00 0.00 47 1014.6
20260505190847 80 213 3.5 9.6 0.00 0.00 0.00 45 1014.7
20260505190348 80 206 3.5 9.6 0.00 0.00 0.00 46 1014.8
20260505185847 80 162 2.6 9.6 0.00 0.00 0.00 46 1014.9
20260505185605 80 80 2.6 8.7 0.00 0.00 0.00 47 1014.9
20260505185452 80 80 2.6 8.7 0.00 0.00 0.00 47 1014.9
20260505184847 80 71 3.5 8.7 0.00 0.00 0.00 45 1014.9
20260505184350 79 193 3.5 8.7 0.00 0.00 0.00 46 1015.0
20260505183844 79 194 4.3 7.8 0.00 0.00 0.00 47 1015.2
20260505183341 79 212 3.5 7.8 0.00 0.00 0.00 46 1015.3
20260505182841 80 157 1.7 7.0 0.00 0.00 0.00 46 1015.2
20260505182338 80 13 2.6 7.0 0.00 0.00 0.00 44 1015.2
20260505181842 80 242 3.5 8.7 0.00 0.00 0.00 49 1015.2
20260505181340 79 209 4.3 8.7 0.00 0.00 0.00 46 1015.3
20260505181321 79 144 4.3 7.8 0.00 0.00 0.00 46 1015.3
20260505180944 79 144 4.3 7.8 0.00 0.00 0.00 46 1015.3
20260505180339 79 95 3.5 7.8 0.00 0.00 0.00 46 1015.3
20260505180106 79 158 3.5 8.7 0.00 0.00 0.00 46 1015.3
20260505175946 79 158 3.5 8.7 0.00 0.00 0.00 46 1015.3
20260505175339 79 174 3.5 8.7 0.00 0.00 0.00 48 1015.4
20260505174841 79 129 2.6 7.8 0.00 0.00 0.00 50 1015.3
20260505174339 79 173 2.6 7.8 0.00 0.00 0.00 47 1015.4
20260505173838 79 215 2.6 6.1 0.00 0.00 0.00 46 1015.4
20260505173336 78 158 3.5 7.0 0.00 0.00 0.00 50 1015.4
20260505172838 78 175 3.5 7.8 0.00 0.00 0.00 49 1015.5
20260505172337 79 202 2.6 7.8 0.00 0.00 0.00 49 1015.5
20260505171839 78 0 2.6 7.8 0.00 0.00 0.00 51 1015.4
20260505171336 78 161 2.6 7.8 0.00 0.00 0.00 49 1015.5
20260505170838 78 161 3.5 9.6 0.00 0.00 0.00 51 1015.5
20260505170338 78 195 3.5 9.6 0.00 0.00 0.00 52 1015.6
20260505165839 78 9 2.6 7.0 0.00 0.00 0.00 52 1015.6
20260505165601 78 204 3.5 11.3 0.00 0.00 0.00 51 1015.7
20260505165443 78 204 3.5 11.3 0.00 0.00 0.00 51 1015.7
20260505164840 77 121 3.5 11.3 0.00 0.00 0.00 52 1015.8
20260505164335 78 171 2.6 7.0 0.00 0.00 0.00 52 1015.8
20260505163836 77 166 2.6 7.8 0.00 0.00 0.00 51 1015.8
20260505163332 76 340 3.5 8.7 0.00 0.00 0.00 54 1015.9
20260505162833 76 178 3.5 8.7 0.00 0.00 0.00 55 1015.8
20260505162332 76 193 4.3 8.7 0.00 0.00 0.00 56 1016.0
20260505161834 76 158 4.3 8.7 0.00 0.00 0.00 55 1016.0
20260505161332 77 178 3.5 8.7 0.00 0.00 0.00 54 1016.0
20260505160833 77 164 1.7 5.2 0.00 0.00 0.00 55 1016.1
20260505160332 77 153 1.7 4.3 0.00 0.00 0.00 53 1016.2
20260505153330 75 286 2.6 8.7 0.00 0.00 0.00 57 1016.3
20260505152833 75 189 3.5 8.7 0.00 0.00 0.00 55 1016.4
20260505152553 75 238 1.7 7.0 0.00 0.00 0.00 56 1016.4
20260505152437 75 238 1.7 7.0 0.00 0.00 0.00 56 1016.4
20260505151833 75 209 1.7 5.2 0.00 0.00 0.00 56 1016.5
20260505151334 74 240 1.7 4.3 0.00 0.00 0.00 58 1016.5
20260505150836 74 107 2.6 6.1 0.00 0.00 0.00 58 1016.5
20260505150336 73 182 2.6 7.0 0.00 0.00 0.00 57 1016.5
20260505140321 72 228 1.7 3.5 0.00 0.00 0.00 62 1016.4
20260505124815 66 184 1.7 6.1 0.00 0.00 0.00 70 1016.6
20260505124314 65 212 1.7 3.5 0.00 0.00 0.00 70 1016.6
20260505123811 65 177 1.7 3.5 0.00 0.00 0.00 71 1016.7
20260505123311 64 176 1.7 3.5 0.00 0.00 0.00 72 1016.6
20260505123040 64 237 0.9 3.5 0.00 0.00 0.00 70 1016.5
20260505122916 64 237 0.9 3.5 0.00 0.00 0.00 70 1016.5
20260505122312 63 59 0.9 2.6 0.00 0.00 0.00 72 1016.6
20260505122034 62 274 1.7 3.5 0.00 0.00 0.00 74 1016.6
20260505121916 62 274 1.7 3.5 0.00 0.00 0.00 74 1016.6
20260505121311 61 210 0.9 3.5 0.00 0.00 0.00 75 1016.6
20260505120811 60 206 1.7 3.5 0.00 0.00 0.00 77 1016.6
20260505120529 60 164 1.7 5.2 0.00 0.00 0.00 79 1016.5
20260505120417 60 164 1.7 5.2 0.00 0.00 0.00 79 1016.5
20260505115811 59 279 1.7 5.2 0.00 0.00 0.00 79 1016.5
20260505115532 59 235 1.7 5.2 0.00 0.00 0.00 79 1016.5
20260505115414 59 235 1.7 5.2 0.00 0.00 0.00 79 1016.5
20260505114807 59 241 1.7 3.5 0.00 0.00 0.00 80 1016.5
20260505114303 58 304 1.7 3.5 0.00 0.00 0.00 81 1016.5
20260505113803 58 195 0.9 3.5 0.00 0.00 0.00 81 1016.4
20260505113303 58 55 0.9 1.7 0.00 0.00 0.00 84 1016.4
20260505112804 56 285 0.9 1.7 0.00 0.00 0.00 86 1016.3
20260505112305 55 24 0.9 1.7 0.00 0.00 0.00 87 1016.3
20260505111803 54 111 0.9 0.9 0.00 0.00 0.00 91 1016.3
20260505111304 53 55 0.9 1.7 0.00 0.00 0.00 93 1016.2
20260505110803 52 298 0.9 1.7 0.00 0.00 0.00 93 1016.2
20260505110303 52 323 0.9 1.7 0.00 0.00 0.00 93 1016.1
20260505102220 51 331 0.9 1.7 0.00 0.00 0.00 92 1015.5
20260505101722 51 339 0.9 1.7 0.00 0.00 0.00 91 1015.5
20260505101221 51 320 0.9 1.7 0.00 0.00 0.00 91 1015.4
20260505100721 51 337 0.9 1.7 0.00 0.00 0.00 91 1015.4
20260505100221 51 336 0.9 1.7 0.00 0.00 0.00 91 1015.3
20260505095953 52 323 0.9 0.9 0.00 0.00 0.00 90 1015.3
20260505095825 52 323 0.9 0.9 0.00 0.00 0.00 90 1015.3
20260505095205 52 300 0.9 0.9 0.00 0.00 0.00 89 1015.3
20260505094706 52 323 0.9 1.7 0.00 0.00 0.00 89 1015.3
20260505094208 52 313 0.9 1.7 0.00 0.00 0.00 89 1015.3
20260505093708 53 310 0.9 1.7 0.00 0.00 0.00 89 1015.3
20260505093206 53 341 0.9 1.7 0.00 0.00 0.00 88 1015.3
20260505092705 53 315 0.9 1.7 0.00 0.00 0.00 88 1015.2
20260505092206 53 163 0.9 1.7 0.00 0.00 0.00 87 1015.2
20260505091705 54 302 0.9 1.7 0.00 0.00 0.00 86 1015.2
20260505091206 54 319 0.9 1.7 0.00 0.00 0.00 86 1015.1
20260505090705 54 321 0.9 0.9 0.00 0.00 0.00 85 1015.0
20260505090435 55 318 0.9 1.7 0.00 0.00 0.00 84 1015.0
20260505090310 55 318 0.9 1.7 0.00 0.00 0.00 84 1015.0
20260505085706 55 338 0.9 1.7 0.00 0.00 0.00 84 1015.1
20260505085206 55 308 0.9 0.9 0.00 0.00 0.00 83 1015.0
20260505084705 55 146 0.9 0.9 0.00 0.00 0.00 82 1015.0
20260505084153 56 325 0.9 0.9 0.00 0.00 0.00 81 1015.0
20260505083653 56 318 0.9 1.7 0.00 0.00 0.00 81 1015.0
20260505083137 56 298 0.9 2.6 0.00 0.00 0.00 80 1015.0
20260505082638 57 302 0.9 2.6 0.00 0.00 0.00 80 1014.9
20260505082406 57 264 0.9 1.7 0.00 0.00 0.00 79 1014.9
20260505082242 57 264 0.9 1.7 0.00 0.00 0.00 79 1014.9
20260505081639 57 331 0.9 1.7 0.00 0.00 0.00 78 1014.9
20260505081358 58 354 0.9 2.6 0.00 0.00 0.00 77 1014.8
20260505081242 58 354 0.9 2.6 0.00 0.00 0.00 77 1014.8
20260505080638 58 280 1.7 3.5 0.00 0.00 0.00 77 1014.8
20260505080138 58 276 1.7 3.5 0.00 0.00 0.00 77 1014.8
20260505075857 58 270 1.7 2.6 0.00 0.00 0.00 76 1014.8
20260505075743 58 270 1.7 2.6 0.00 0.00 0.00 76 1014.8
20260505075125 58 260 1.7 2.6 0.00 0.00 0.00 76 1014.8
20260505074625 58 260 1.7 2.6 0.00 0.00 0.00 76 1014.7
20260505074109 58 257 1.7 2.6 0.00 0.00 0.00 75 1014.7
20260505073838 59 247 1.7 2.6 0.00 0.00 0.00 75 1014.8
20260505073714 59 247 1.7 2.6 0.00 0.00 0.00 75 1014.8
20260505073329 59 224 1.7 4.3 0.00 0.00 0.00 75 1014.7
20260505073213 59 224 1.7 4.3 0.00 0.00 0.00 75 1014.7
20260505072607 59 184 1.7 4.3 0.00 0.00 0.00 74 1014.7
20260505072105 59 252 1.7 3.5 0.00 0.00 0.00 74 1014.7
20260505071605 59 211 1.7 4.3 0.00 0.00 0.00 73 1014.7
20260505071106 59 246 1.7 4.3 0.00 0.00 0.00 73 1014.7
20260505070604 59 117 1.7 4.3 0.00 0.00 0.00 73 1014.7
20260505070110 59 151 1.7 5.2 0.00 0.00 0.00 72 1014.7
20260505065604 59 247 1.7 5.2 0.00 0.00 0.00 72 1014.6
20260505065104 60 193 1.7 5.2 0.00 0.00 0.00 72 1014.6
20260505064830 60 95 1.7 5.2 0.00 0.00 0.00 72 1014.6
20260505064710 60 95 1.7 5.2 0.00 0.00 0.00 72 1014.6
20260505064105 60 213 1.7 5.2 0.00 0.00 0.00 72 1014.6
20260505063824 60 175 1.7 5.2 0.00 0.00 0.00 72 1014.6
20260505063709 60 175 1.7 5.2 0.00 0.00 0.00 72 1014.6
20260505063101 60 255 1.7 5.2 0.00 0.00 0.00 71 1014.6
20260505062602 60 232 1.7 5.2 0.00 0.00 0.00 71 1014.6
20260505062330 60 233 1.7 4.3 0.00 0.00 0.00 70 1014.6
20260505062205 60 233 1.7 4.3 0.00 0.00 0.00 70 1014.6
20260505061601 60 237 1.7 4.3 0.00 0.00 0.00 70 1014.6
20260505061102 60 151 1.7 6.1 0.00 0.00 0.00 70 1014.7
20260505060602 60 246 1.7 6.1 0.00 0.00 0.00 70 1014.7
20260505055602 61 258 1.7 6.1 0.00 0.00 0.00 70 1014.8
20260505055102 61 172 1.7 6.1 0.00 0.00 0.00 69 1014.8
20260505054558 61 152 1.7 5.2 0.00 0.00 0.00 69 1014.9
20260505054100 61 221 1.7 6.1 0.00 0.00 0.00 69 1014.9
20260505053600 61 250 1.7 6.1 0.00 0.00 0.00 68 1015.0
20260505053059 61 130 1.7 5.2 0.00 0.00 0.00 69 1015.0
20260505052816 61 187 1.7 5.2 0.00 0.00 0.00 69 1015.0
20260505052703 61 187 1.7 5.2 0.00 0.00 0.00 69 1015.0
20260505052059 62 255 1.7 5.2 0.00 0.00 0.00 68 1015.0
20260505051601 62 165 1.7 5.2 0.00 0.00 0.00 68 1015.0
20260505051059 62 186 1.7 5.2 0.00 0.00 0.00 68 1015.1
20260505050601 62 155 2.6 5.2 0.00 0.00 0.00 68 1015.1
20260505041556 63 224 2.6 7.8 0.00 0.00 0.00 67 1015.0
20260505041055 63 188 1.7 7.8 0.00 0.00 0.00 67 1015.0
20260505040820 63 200 1.7 7.8 0.00 0.00 0.00 67 1015.0
20260505040659 63 200 1.7 7.8 0.00 0.00 0.00 67 1015.0
20260505040055 63 201 2.6 6.1 0.00 0.00 0.00 66 1015.0
20260505035555 63 214 2.6 6.1 0.00 0.00 0.00 66 1015.0
20260505035054 63 211 2.6 5.2 0.00 0.00 0.00 66 1015.0
20260505034554 64 174 2.6 5.2 0.00 0.00 0.00 65 1015.0
20260505034056 64 185 1.7 5.2 0.00 0.00 0.00 65 1015.0
20260505033553 64 140 2.6 6.1 0.00 0.00 0.00 65 1015.0
20260505033052 64 228 2.6 7.8 0.00 0.00 0.00 64 1015.0
20260505032552 64 183 2.6 7.8 0.00 0.00 0.00 64 1015.0
20260505032052 64 214 2.6 8.7 0.00 0.00 0.00 65 1015.0
20260505031552 64 42 1.7 8.7 0.00 0.00 0.00 64 1014.9
20260505031053 64 190 1.7 5.2 0.00 0.00 0.00 64 1014.9
20260505030552 65 267 2.6 6.1 0.00 0.00 0.00 64 1014.9
20260505030052 65 75 2.6 6.1 0.00 0.00 0.00 63 1015.0
20260505025552 65 214 2.6 6.1 0.00 0.00 0.00 63 1014.9
20260505025053 65 225 2.6 6.1 0.00 0.00 0.00 63 1015.0
20260505024553 65 184 2.6 6.1 0.00 0.00 0.00 63 1015.0
20260505024311 65 218 2.6 7.8 0.00 0.00 0.00 63 1014.9
20260505024154 65 218 2.6 7.8 0.00 0.00 0.00 63 1014.9
20260505023549 66 218 2.6 7.8 0.00 0.00 0.00 63 1014.9
20260505023047 66 200 3.5 7.8 0.00 0.00 0.00 62 1014.8
20260505022547 66 210 3.5 7.0 0.00 0.00 0.00 62 1014.8
20260505022047 66 230 3.5 7.0 0.00 0.00 0.00 62 1014.8
20260505021547 67 193 3.5 8.7 0.00 0.00 0.00 61 1014.7
20260505021047 67 191 2.6 8.7 0.00 0.00 0.00 62 1014.7
20260505020548 67 168 2.6 7.8 0.00 0.00 0.00 62 1014.6
20260505020047 67 241 3.5 7.8 0.00 0.00 0.00 62 1014.7
20260505015547 67 159 3.5 7.8 0.00 0.00 0.00 62 1014.6
20260505015047 67 162 3.5 7.8 0.00 0.00 0.00 61 1014.6
20260505014815 68 167 2.6 7.8 0.00 0.00 0.00 61 1014.5
20260505014652 68 167 2.6 7.8 0.00 0.00 0.00 61 1014.5
20260505014046 68 174 3.5 7.8 0.00 0.00 0.00 61 1014.4
20260505013544 68 183 3.5 7.8 0.00 0.00 0.00 60 1014.4
20260505013045 68 176 3.5 7.0 0.00 0.00 0.00 60 1014.3
20260505012546 69 88 3.5 8.7 0.00 0.00 0.00 59 1014.2
20260505012046 69 208 3.5 8.7 0.00 0.00 0.00 59 1014.2
20260505011546 69 162 3.5 9.6 0.00 0.00 0.00 58 1014.1
20260505011046 69 189 3.5 9.6 0.00 0.00 0.00 57 1014.0
20260505010547 69 191 3.5 9.6 0.00 0.00 0.00 55 1013.8
20260505010308 69 169 3.5 9.6 0.00 0.00 0.00 53 1013.7
20260505010151 69 169 3.5 9.6 0.00 0.00 0.00 53 1013.7
20260505005545 69 149 3.5 9.6 0.00 0.00 0.00 50 1013.6
20260505005046 69 169 2.6 7.0 0.00 0.00 0.00 48 1013.4
20260505004543 69 156 1.7 5.2 0.00 0.00 0.00 48 1013.4
20260505004041 69 240 0.9 3.5 0.00 0.00 0.00 48 1013.2
20260505003540 69 180 1.7 4.3 0.00 0.00 0.00 48 1013.2